AF834 KGPI-KGPI

Flight info

Callsign AF834
Flight time N/A
Altitude 1000
Route KGPI LCL KGPI
Aircraft C172/L-VGD/A

Departure

Time 2026-05-08 10:36
Airport Glacier Park International Airport (KGPI)

Arrival

Time N/A
Airport Glacier Park International Airport (KGPI)
Time Latitude Longitude Altitude Speed Heading
2026-05-08 10:24 48.31028 -114.24909 2971 ft 0 kts 319°
2026-05-08 10:34 48.31031 -114.24913 2971 ft 3 kts 320°
2026-05-08 10:34 48.31045 -114.24928 2971 ft 1 kts 341°
2026-05-08 10:34 48.31062 -114.24894 2971 ft 10 kts 53°
2026-05-08 10:34 48.31105 -114.24837 2972 ft 5 kts
2026-05-08 10:35 48.31145 -114.24888 2971 ft 11 kts 310°
2026-05-08 10:35 48.31166 -114.24919 2970 ft 3 kts 317°
2026-05-08 10:35 48.31192 -114.24956 2970 ft 21 kts 315°
2026-05-08 10:35 48.31429 -114.25276 2970 ft 68 kts 315°
2026-05-08 10:36 48.31825 -114.25861 3022 ft 89 kts 323°
2026-05-08 10:36 48.32290 -114.26494 3187 ft 93 kts 314°
2026-05-08 10:36 48.32714 -114.27228 3402 ft 90 kts 306°
2026-05-08 10:36 48.32859 -114.28124 3606 ft 88 kts 257°
2026-05-08 10:37 48.32574 -114.28919 3750 ft 89 kts 233°
2026-05-08 10:37 48.32123 -114.29571 3887 ft 89 kts 213°
2026-05-08 10:37 48.31592 -114.29313 3906 ft 102 kts 129°
2026-05-08 10:37 48.31111 -114.28402 3812 ft 117 kts 133°
2026-05-08 10:38 48.30529 -114.27553 3786 ft 119 kts 144°
2026-05-08 10:38 48.29861 -114.26704 3621 ft 123 kts 138°
2026-05-08 10:38 48.29268 -114.25748 3398 ft 134 kts 124°
2026-05-08 10:38 48.28841 -114.24715 3723 ft 100 kts 118°
2026-05-08 10:39 48.28582 -114.23749 3868 ft 96 kts 100°
2026-05-08 10:39 48.28703 -114.22808 4066 ft 89 kts 56°
2026-05-08 10:39 48.29154 -114.22139 4154 ft 97 kts 33°
2026-05-08 10:39 48.29759 -114.21895 4179 ft 103 kts 335°
2026-05-08 10:40 48.30055 -114.23003 3585 ft 131 kts 286°
2026-05-08 10:40 48.30462 -114.24198 3250 ft 123 kts 320°
2026-05-08 10:40 48.31137 -114.24872 2995 ft 113 kts 319°
2026-05-08 10:40 48.31649 -114.25595 2976 ft 101 kts 316°
2026-05-08 10:41 48.32182 -114.26329 3101 ft 107 kts 319°
2026-05-08 10:41 48.32691 -114.27106 3329 ft 104 kts 315°
2026-05-08 10:41 48.33081 -114.27979 3576 ft 97 kts 278°